Terminal Aerodrome Forecast
Issued by NWS

Home | Current Version | Previous Version | Text Only | Print | Product List | Glossary On
Versions: 1 2 3 4 5 6 7 8 9 10 11 12 13 14 15 16 17 18 19
000
FTUS44 KBMX 281800 AAA
TAFTOI
TAF AMD
KTOI 281842Z 2819/2918 27012G18KT P6SM VCTS SCT025CB BKN050
      TEMPO 2819/2822 30015G25KT 4SM TSRA BKN025CB
     FM282300 31010G16KT P6SM SCT050
     FM290200 34004KT P6SM SKC
     FM291500 35008KT P6SM SKC=

USA.gov is the U.S. government's official web portal to all federal, state and local government web resources and services.